• In Netherlands
  • List of Countries
  • For 7 days
  • Water Temperature
  • Satellite Maps
  • Weather Map
  • Weather Widgets
  • user-avatar
    Login

    Hourly Weather Razgrad

    Today, 22 November, Wednesday

    Time Temperature Precipitation Wind Pressure Humidity
    00:00 +4°C° 0 mm 2 mps 742 mmHg 65%
    01:00 +4°C° 0 mm 2 mps 742 mmHg 66%
    02:00 +4°C° 0 mm 2 mps 742 mmHg 67%
    03:00 +4°C° 0 mm 2 mps 742 mmHg 68%
    04:00 +5°C° 0 mm 2 mps 742 mmHg 69%
    05:00 +5°C° 0 mm 2 mps 742 mmHg 69%
    06:00 +5°C° 0 mm 2 mps 742 mmHg 69%
    07:00 +5°C° 0 mm 2 mps 742 mmHg 70%
    08:00 +5°C° 0 mm 2 mps 742 mmHg 70%
    09:00 +7°C° 0 mm 3 mps 742 mmHg 64%
    10:00 +7°C° 0 mm 4 mps 742 mmHg 58%
    11:00 +10°C° 0 mm 4 mps 742 mmHg 52%
    12:00 +9°C° 0 mm 5 mps 742 mmHg 52%
    13:00 +10°C° 0 mm 5 mps 742 mmHg 51%
    14:00 +12°C° 0 mm 5 mps 742 mmHg 51%
    15:00 +11°C° 0 mm 4 mps 742 mmHg 55%
    16:00 +10°C° 0 mm 3 mps 741 mmHg 60%
    17:00 +9°C° 0 mm 2 mps 741 mmHg 64%
    18:00 +9°C° 0 mm 2 mps 742 mmHg 65%
    19:00 +8°C° 0 mm 2 mps 742 mmHg 67%
    20:00 +8°C° 0 mm 2 mps 742 mmHg 68%
    21:00 +8°C° 0 mm 2 mps 742 mmHg 69%
    22:00 +8°C° 0 mm 2 mps 742 mmHg 69%
    23:00 +8°C° 0 mm 2 mps 742 mmHg 70%

    Tomorrow, 23 November, Thursday

    Time Temperature Precipitation Wind Pressure Humidity
    00:00 +8°C° 0 mm 1 mps 743 mmHg 71%
    01:00 +8°C° 0 mm 1 mps 743 mmHg 73%
    02:00 +8°C° 0 mm 1 mps 743 mmHg 75%
    03:00 +7°C° 0 mm 1 mps 743 mmHg 76%
    04:00 +7°C° 0 mm 1 mps 743 mmHg 78%
    05:00 +7°C° 0 mm 1 mps 743 mmHg 80%
    06:00 +7°C° 0 mm 1 mps 744 mmHg 80%
    07:00 +7°C° 0 mm 1 mps 744 mmHg 80%
    08:00 +5°C° 0 mm 0 mps 745 mmHg 80%
    09:00 +8°C° 0 mm 1 mps 745 mmHg 74%
    10:00 +10°C° 0 mm 1 mps 745 mmHg 67%
    11:00 +11°C° 0 mm 1 mps 745 mmHg 61%
    12:00 +12°C° 0 mm 1 mps 745 mmHg 58%
    13:00 +13°C° 0 mm 1 mps 745 mmHg 56%
    14:00 +13°C° 0 mm 1 mps 745 mmHg 54%
    15:00 +12°C° 0 mm 1 mps 745 mmHg 59%
    16:00 +11°C° 0 mm 1 mps 745 mmHg 64%
    17:00 +9°C° 0 mm 0 mps 745 mmHg 68%
    18:00 +10°C° 0 mm 1 mps 746 mmHg 71%
    19:00 +9°C° 0 mm 1 mps 746 mmHg 73%
    20:00 +9°C° 0 mm 1 mps 746 mmHg 75%
    21:00 +9°C° 0 mm 1 mps 746 mmHg 77%
    22:00 +8°C° 0 mm 1 mps 746 mmHg 78%
    23:00 +8°C° 0 mm 1 mps 746 mmHg 79%

    Day after tomorrow, 24 November, Friday

    Time Temperature Precipitation Wind Pressure Humidity
    00:00 +8°C° 0 mm 1 mps 746 mmHg 80%
    01:00 +8°C° 0 mm 1 mps 746 mmHg 80%
    02:00 +6°C° 0 mm 0 mps 746 mmHg 81%
    03:00 +6°C° 0 mm 0 mps 746 mmHg 81%
    04:00 +6°C° 0 mm 0 mps 746 mmHg 81%
    05:00 +6°C° 0 mm 0 mps 746 mmHg 81%
    06:00 +6°C° 0 mm 0 mps 746 mmHg 81%
    07:00 +6°C° 0 mm 0 mps 746 mmHg 80%
    08:00 +6°C° 0 mm 0 mps 746 mmHg 80%
    09:00 +8°C° 0 mm 0 mps 747 mmHg 73%
    10:00 +9°C° 0 mm 0 mps 747 mmHg 66%
    11:00 +11°C° 0 mm 0 mps 747 mmHg 59%
    12:00 +13°C° 0 mm 1 mps 747 mmHg 57%
    13:00 +13°C° 0 mm 1 mps 747 mmHg 55%
    14:00 +14°C° 0 mm 1 mps 746 mmHg 53%
    15:00 +13°C° 0 mm 1 mps 746 mmHg 58%
    16:00 +12°C° 0 mm 1 mps 746 mmHg 63%
    17:00 +11°C° 0 mm 1 mps 747 mmHg 67%
    18:00 +10°C° 0 mm 1 mps 747 mmHg 69%
    19:00 +10°C° 0 mm 1 mps 747 mmHg 71%
    20:00 +9°C° 0 mm 1 mps 747 mmHg 73%
    21:00 +9°C° 0 mm 1 mps 748 mmHg 75%
    22:00 +9°C° 0 mm 1 mps 748 mmHg 76%
    23:00 +8°C° 0 mm 1 mps 748 mmHg 78%

    25 November, Saturday

    Time Temperature Precipitation Wind Pressure Humidity
    00:00 +8°C° 0 mm 1 mps 748 mmHg 79%
    01:00 +8°C° 0 mm 1 mps 748 mmHg 81%
    02:00 +8°C° 0 mm 1 mps 748 mmHg 82%
    03:00 +6°C° 0 mm 2 mps 748 mmHg 84%
    04:00 +6°C° 0 mm 2 mps 748 mmHg 86%
    05:00 +6°C° 0 mm 2 mps 748 mmHg 87%
    06:00 +6°C° 0 mm 2 mps 748 mmHg 88%
    07:00 +6°C° 0 mm 2 mps 748 mmHg 89%
    08:00 +6°C° 0 mm 2 mps 749 mmHg 90%
    09:00 +8°C° 0 mm 3 mps 749 mmHg 83%
    10:00 +10°C° 0 mm 3 mps 749 mmHg 76%
    11:00 +12°C° 0 mm 4 mps 749 mmHg 68%
    12:00 +12°C° 0 mm 4 mps 748 mmHg 65%
    13:00 +13°C° 0 mm 4 mps 748 mmHg 63%
    14:00 +13°C° 0 mm 4 mps 747 mmHg 60%
    15:00 +12°C° 0 mm 4 mps 747 mmHg 65%
    16:00 +11°C° 0 mm 4 mps 747 mmHg 71%
    17:00 +10°C° 0 mm 3 mps 747 mmHg 76%
    18:00 +9°C° 0 mm 3 mps 747 mmHg 80%
    19:00 +9°C° 0 mm 3 mps 747 mmHg 83%
    20:00 +8°C° 0 mm 3 mps 747 mmHg 87%
    21:00 +8°C° 0 mm 3 mps 747 mmHg 88%
    22:00 +7°C° 0 mm 3 mps 747 mmHg 89%
    23:00 +7°C° 0 mm 3 mps 747 mmHg 90%

    26 November, Sunday

    Time Temperature Precipitation Wind Pressure Humidity
    00:00 +7°C° 0 mm 2 mps 746 mmHg 90%
    01:00 +6°C° 0 mm 2 mps 746 mmHg 90%
    02:00 +6°C° 0 mm 2 mps 746 mmHg 91%
    03:00 +6°C° 0 mm 2 mps 746 mmHg 91%
    04:00 +6°C° 0 mm 2 mps 745 mmHg 91%
    05:00 +5°C° 0 mm 2 mps 745 mmHg 90%
    06:00 +6°C° 0 mm 1 mps 745 mmHg 90%
    07:00 +6°C° 0 mm 1 mps 745 mmHg 90%
    08:00 +6°C° 0 mm 1 mps 745 mmHg 89%
    09:00 +8°C° 0 mm 1 mps 745 mmHg 81%
    10:00 +10°C° 0 mm 1 mps 745 mmHg 73%
    11:00 +11°C° 0 mm 1 mps 745 mmHg 66%
    12:00 +12°C° 0 mm 1 mps 745 mmHg 62%
    13:00 +13°C° 0 mm 1 mps 744 mmHg 58%
    14:00 +14°C° 0 mm 1 mps 744 mmHg 55%
    15:00 +13°C° 0 mm 1 mps 744 mmHg 59%
    16:00 +12°C° 0 mm 1 mps 744 mmHg 64%
    17:00 +11°C° 0 mm 1 mps 743 mmHg 68%
    18:00 +10°C° 0 mm 1 mps 743 mmHg 71%
    19:00 +10°C° 0 mm 1 mps 743 mmHg 73%
    20:00 +9°C° 0 mm 1 mps 743 mmHg 76%
    21:00 +9°C° 0 mm 1 mps 743 mmHg 77%
    22:00 +9°C° 0 mm 1 mps 743 mmHg 78%
    23:00 +8°C° 0 mm 1 mps 743 mmHg 79%

    27 November, Monday

    Time Temperature Precipitation Wind Pressure Humidity
    00:00 +8°C° 0 mm 1 mps 742 mmHg 80%
    01:00 +8°C° 0 mm 1 mps 742 mmHg 81%
    02:00 +8°C° 0 mm 1 mps 742 mmHg 82%
    03:00 +7°C° 0 mm 2 mps 741 mmHg 83%
    04:00 +6°C° 0 mm 2 mps 741 mmHg 83%
    05:00 +6°C° 0 mm 2 mps 740 mmHg 84%
    06:00 +6°C° 0 mm 2 mps 740 mmHg 85%
    07:00 +7°C° 0 mm 1 mps 740 mmHg 86%
    08:00 +7°C° 0 mm 1 mps 740 mmHg 87%
    09:00 +7°C° 0 mm 2 mps 740 mmHg 83%
    10:00 +9°C° 0 mm 2 mps 740 mmHg 78%
    11:00 +10°C° 0 mm 2 mps 740 mmHg 73%
    12:00 +9°C° 0.4 mm 3 mps 740 mmHg 76%
    13:00 +9°C° 0.4 mm 3 mps 740 mmHg 79%
    14:00 +7°C° 0.4 mm 4 mps 740 mmHg 82%
    15:00 +6°C° 0.7 mm 4 mps 740 mmHg 83%
    16:00 +6°C° 0.7 mm 4 mps 740 mmHg 85%
    17:00 +5°C° 0.7 mm 5 mps 740 mmHg 86%
    18:00 +5°C° 0.5 mm 5 mps 740 mmHg 84%
    19:00 +3°C° 0.5 mm 5 mps 740 mmHg 82%
    20:00 +3°C° 0.5 mm 5 mps 741 mmHg 80%
    21:00 +3°C° 0.3 mm 5 mps 741 mmHg 80%
    22:00 +3°C° 0.3 mm 5 mps 741 mmHg 80%
    23:00 +2°C° 0.3 mm 5 mps 742 mmHg 80%
    Show more